Find Starlink 36410

NORAD ID: 67337 Int'l Des: 2026-003 Owner: SPXS Country: US Constellation: starlink operational
LEOCIRCULAR

リアルタイム位置

3D地球を読み込み中...

Starlink 36410について

説明を読み込み中...

次回通過

Passes for default location (London). Set your location on the main map for personalized predictions.

高度履歴

Loading altitude history...

軌道要素

1 67337U 26003D 26107.03370867 .00013251 00000-0 48995-3 0 9997
2 67337 43.0019 10.9111 0001152 273.1861 86.8859 15.27596739 14682
Epoch: Apr 17, 2026 • Age: 16 hours

現在のステータス

高度 485.6 km
速度 7.63 km/s
衛星直下点 37.17°N, 32.07°E
打ち上げ日 Jan 9, 2026
運用期間 0.2 years
タイプ internet

技術仕様

分類 Payload
質量 575.00 kg
乾燥質量 530.00 kg
総質量 575.00 kg
長さ 0.30 m
直径 4.10 m
スパン 29.00 m
形状 Box + pan
製造者 SPXS
バスタイプ Starlink V2MO
フェーズステータス In Orbit
所有者/国 SPXS/US

Most Searched